DW6125 Weather Reports


time (UTC)temp
C
wind
direction
speed
KPH
gust
KPH
rain 1hr
cm
rain 24hr
cm
rain mn
cm
humidity
%
barometer
mb
20260906110039 20 44 0.0 6.4 0.00 0.00 0.00 94 1016.2
20260906105039 20 114 1.6 8.0 0.00 0.00 0.00 95 1016.1
20260906104039 20 109 3.2 8.0 0.00 0.00 0.00 95 1016.0
20260906103039 20 94 0.0 3.2 0.00 0.00 0.00 96 1016.1
20260906101039 21 69 8.0 8.0 0.00 0.00 0.00 97 1016.1
20260906100039 21 82 0.0 12.9 0.00 0.00 0.00 97 1016.1
20260906095039 21 37 0.0 14.5 0.00 0.00 0.00 97 1016.0
20260906093038 21 111 9.7 9.7 0.00 0.00 0.00 97 1016.1
20260906092040 21 336 1.6 9.7 0.00 0.00 0.00 96 1016.1
20260906091039 21 113 3.2 11.3 0.00 0.00 0.00 96 1016.1
20260906090039 21 56 1.6 8.0 0.00 0.00 0.00 96 1016.2
20260906085040 21 344 4.8 8.0 0.00 0.00 0.00 96 1016.1
20260906084039 21 28 1.6 6.4 0.00 0.00 0.00 96 1016.1
20260906083038 21 62 1.6 4.8 0.00 0.00 0.00 96 1016.1
20260906082038 21 73 0.0 6.4 0.00 0.00 0.00 96 1016.1
20260906081039 21 82 0.0 6.4 0.00 0.00 0.00 96 1015.8
20260906075038 21 131 0.0 9.7 0.00 0.00 0.00 95 1015.6
20260906074039 21 113 6.4 12.9 0.00 0.00 0.00 95 1015.7
20260906073038 21 74 1.6 6.4 0.00 0.00 0.00 95 1015.8
20260906072038 21 15 3.2 9.7 0.00 0.00 0.00 95 1015.9
20260906071038 21 97 1.6 11.3 0.00 0.00 0.00 94 1016.0
20260906070039 21 59 8.0 14.5 0.00 0.00 0.00 94 1016.0
20260906065038 21 65 4.8 8.0 0.00 0.00 0.00 94 1016.2
20260906064038 21 26 1.6 9.7 0.00 0.00 0.00 94 1016.2
20260906063038 21 15 1.6 14.5 0.00 0.00 0.00 94 1016.3
20260906062038 21 11 4.8 8.0 0.00 0.00 0.00 94 1016.4
20260906061038 21 62 3.2 6.4 0.00 0.00 0.00 94 1016.3
20260906060038 21 323 3.2 9.7 0.00 0.00 0.00 94 1016.1
20260906055038 21 360 3.2 6.4 0.00 0.00 0.00 94 1015.9
20260906053038 21 355 1.6 14.5 0.00 0.00 0.00 94 1015.8
20260906052038 21 26 1.6 6.4 0.00 0.00 0.00 94 1015.8
20260906051038 21 97 4.8 9.7 0.00 0.00 0.00 94 1015.8
20260906050038 21 22 3.2 9.7 0.00 0.00 0.00 94 1015.8
20260906045038 21 71 4.8 11.3 0.00 0.00 0.00 94 1015.7
20260906044038 21 13 0.0 12.9 0.00 0.00 0.00 94 1015.6
20260906043038 21 41 1.6 8.0 0.00 0.00 0.00 94 1015.4
20260906042038 21 67 0.0 6.4 0.00 0.00 0.00 94 1015.6
20260906041038 21 348 0.0 9.7 0.00 0.00 0.00 93 1015.5
20260906035038 22 313 6.4 16.1 0.00 0.00 0.00 93 1015.6
20260906034038 22 329 4.8 9.7 0.00 0.00 0.00 93 1015.6
20260906033038 22 112 0.0 14.5 0.00 0.00 0.00 92 1015.5
20260906030038 22 61 8.0 12.9 0.00 0.00 0.00 91 1015.0
20260906025037 22 110 1.6 17.7 0.00 0.00 0.00 90 1014.9
20260906023037 23 87 8.0 16.1 0.00 0.00 0.00 90 1015.1
20260906022038 23 27 0.0 16.1 0.00 0.00 0.00 89 1014.9
20260906021037 24 12 6.4 14.5 0.00 0.00 0.00 89 1014.8
20260906020038 24 128 1.6 12.9 0.00 0.00 0.00 88 1014.7
20260906015037 25 309 3.2 19.3 0.00 0.00 0.00 87 1014.5
20260906014037 25 331 4.8 20.9 0.00 0.00 0.00 86 1014.3
20260906012037 26 342 4.8 14.5 0.00 0.00 0.00 84 1014.2
20260906011037 26 52 1.6 20.9 0.00 0.00 0.00 83 1013.9
20260906005037 27 78 4.8 12.9 0.00 0.00 0.00 82 1013.8
20260906004037 27 44 6.4 19.3 0.00 0.00 0.00 82 1013.7
20260906003037 27 306 3.2 14.5 0.00 0.00 0.00 82 1013.5
20260906002038 28 20 4.8 20.9 0.00 0.00 0.00 81 1013.5
20260906001037 28 260 6.4 14.5 0.00 0.00 0.00 80 1013.4
20260906000037 28 117 6.4 20.9 0.00 0.00 0.00 80 1013.2
20260905235037 29 23 3.2 19.3 0.00 0.00 0.00 78 1013.2
20260905234037 30 103 4.8 20.9 0.00 0.00 0.00 77 1013.2
20260905233037 31 9 11.3 24.1 0.00 0.00 0.00 74 1013.1
20260905230037 32 323 4.8 17.7 0.00 0.00 0.00 70 1012.7
20260905225037 32 313 0.0 17.7 0.00 0.00 0.00 70 1012.6
20260905224037 32 69 3.2 22.5 0.00 0.00 0.00 69 1012.5
20260905223037 32 313 3.2 14.5 0.00 0.00 0.00 69 1012.6
20260905221037 33 19 11.3 17.7 0.00 0.00 0.00 68 1012.6
20260905220037 33 338 3.2 19.3 0.00 0.00 0.00 69 1012.6
20260905215037 33 331 14.5 16.1 0.00 0.00 0.00 68 1012.6
20260905214037 33 347 3.2 16.1 0.00 0.00 0.00 68 1012.5
20260905213037 33 11 16.1 22.5 0.00 0.00 0.00 69 1012.7
20260905212037 33 30 3.2 17.7 0.00 0.00 0.00 68 1012.6
20260905210037 33 338 8.0 12.9 0.00 0.00 0.00 69 1012.8
20260905200037 34 264 1.6 14.5 0.00 0.00 0.00 67 1013.0
20260905195037 34 330 3.2 19.3 0.00 0.00 0.00 68 1013.0
20260905194037 33 261 11.3 12.9 0.00 0.00 0.00 67 1012.9
20260905193036 33 273 3.2 11.3 0.00 0.00 0.00 67 1013.1
20260905192036 34 264 6.4 14.5 0.00 0.00 0.00 66 1013.2
20260905191037 33 348 3.2 12.9 0.00 0.00 0.00 67 1013.3
20260905190036 33 279 1.6 9.7 0.00 0.00 0.00 68 1013.5
20260905185036 34 275 3.2 11.3 0.00 0.00 0.00 66 1013.5
20260905184036 33 272 0.0 12.9 0.00 0.00 0.00 69 1013.5
20260905182036 34 271 3.2 12.9 0.00 0.00 0.00 65 1013.8
20260905181037 34 331 9.7 14.5 0.00 0.00 0.00 66 1013.8
20260905180036 34 276 4.8 9.7 0.00 0.00 0.00 66 1013.9
20260905175036 34 61 0.0 14.5 0.00 0.00 0.00 65 1014.0
20260905174036 34 263 1.6 11.3 0.00 0.00 0.00 65 1014.1
20260905173036 34 263 9.7 9.7 0.00 0.00 0.00 65 1013.9
20260905172036 33 278 0.0 9.7 0.00 0.00 0.00 66 1014.1
20260905171039 33 268 0.0 11.3 0.00 0.00 0.00 68 1014.2
20260905170037 33 272 3.2 11.3 0.00 0.00 0.00 67 1014.2
20260905164036 33 288 0.0 11.3 0.00 0.00 0.00 68 1014.3
20260905163036 32 261 4.8 11.3 0.00 0.00 0.00 70 1014.3
20260905162036 32 270 4.8 12.9 0.00 0.00 0.00 72 1014.2
20260905161036 32 271 0.0 9.7 0.00 0.00 0.00 71 1014.2
20260905160036 32 275 6.4 11.3 0.00 0.00 0.00 69 1014.3
20260905154036 32 270 6.4 12.9 0.00 0.00 0.00 69 1014.3
20260905153036 32 265 3.2 11.3 0.00 0.00 0.00 69 1014.4
20260905152036 31 268 0.0 9.7 0.00 0.00 0.00 75 1014.1
20260905151036 31 267 3.2 6.4 0.00 0.00 0.00 74 1014.0
20260905150036 31 270 4.8 11.3 0.00 0.00 0.00 73 1014.0
20260905145036 31 276 3.2 11.3 0.00 0.00 0.00 73 1014.1
20260905144036 31 269 3.2 4.8 0.00 0.00 0.00 77 1014.1
20260905143036 30 264 3.2 9.7 0.00 0.00 0.00 78 1014.1
20260905142036 30 272 1.6 11.3 0.00 0.00 0.00 81 1014.4
20260905141036 28 265 9.7 9.7 0.00 0.00 0.00 80 1014.2
20260905140036 28 259 6.4 11.3 0.00 0.00 0.00 83 1014.2
20260905135037 28 271 4.8 11.3 0.00 0.00 0.00 83 1014.1
20260905134036 28 274 3.2 6.4 0.00 0.00 0.00 85 1014.1
20260905133035 27 278 4.8 6.4 0.00 0.00 0.00 86 1014.1
20260905132035 27 274 3.2 9.7 0.00 0.00 0.00 87 1014.1
20260905131035 26 267 1.6 3.2 0.00 0.00 0.00 89 1014.2
20260905130036 26 267 1.6 3.2 0.00 0.00 0.00 90 1014.2
20260905125035 26 267 1.6 3.2 0.00 0.00 0.00 91 1014.0
20260905124036 25 267 0.0 1.6 0.00 0.00 0.00 91 1014.0
20260905123036 25 267 1.6 1.6 0.00 0.00 0.00 91 1014.1
20260905122035 25 267 0.0 1.6 0.00 0.00 0.00 92 1013.9
20260905121035 25 267 0.0 0.0 0.00 0.00 0.00 93 1013.9
20260905120036 24 267 0.0 1.6 0.00 0.00 0.00 94 1013.8
20260905115035 24 267 0.0 3.2 0.00 0.00 0.00 94 1013.7
20260905113035 25 267 0.0 3.2 0.00 0.00 0.00 93 1013.7
20260905112035 25 267 0.0 0.0 0.00 0.00 0.00 92 1013.8
20260905111035 25 267 0.0 0.0 0.00 0.00 0.00 92 1013.7